Weather History for Joplin, MO

Change the Weather History Date:

Friday, July 27, 2012

  Actual Average Record
Temperature  
Mean Temperature 87 °F 81 °F  
Max Temperature 103 °F 91 °F 105 °F (2011)
Min Temperature 70 °F 70 °F 54 °F (2004)
Degree Days  
Heating Degree Days 0 0  
Month to date heating degree days 0 0  
Since 1 June heating degree days 9 5  
Since 1 July heating degree days 0 0  
Cooling Degree Days 22 16  
Month to date cooling degree days 574 411  
Year to date cooling degree days 1318 909  
Since 1 June cooling degree days 972 729  
Growing Degree Days 36 (Base 50)    
Moisture  
Dew Point 65 °F    
Average Humidity 60    
Maximum Humidity 97    
Minimum Humidity 23    
Precipitation  
Precipitation T in 0.10 in 1.62 in (2001)
Month to date precipitation T 3.40  
Year to date precipitation 20.69 27.21  
Snow  
Snow 0.00 in - - ()
Month to date snowfall 0.0  
Since 1 June snowfall 0.0  
Snow Depth 0.00 in    
Sea Level Pressure  
Sea Level Pressure 29.94 in    
Wind  
Wind Speed 6 mph (SSW)    
Max Wind Speed 20 mph    
Max Gust Speed 26 mph    
Visibility 10 miles    
Events Rain    
T = Trace of Precipitation, MM = Missing Value Source: NWS Daily Summary

Daily Weather History Graph

Daily Weather History Graph

Search for Another Location

Airport:

Trip Planner

Search our weather history database for the weather conditions in past years. The results will help you decide how hot, cold, wet, or windy it might be!

Date:

Astronomy

Jul. 27, 2012 Rise Set
Actual Time 6:19 AM CDT 8:29 PM CDT
Civil Twilight 5:50 AM CDT 8:58 PM CDT
Nautical Twilight 5:14 AM CDT 9:33 PM CDT
Astronomical Twilight 4:35 AM CDT 10:12 PM CDT
Moon 3:27 PM CDT (7/27) 12:51 AM CDT (7/27)
Length of Visible Light 15h 08m
Length of Day
14h 10m
Waxing Gibbous, 65% of the Moon is Illuminated
Jul 27
Waxing Gibbous
Aug 1
Full
Aug 9
Last Quarter
Aug 17
New
Aug 24
First Quarter

Hourly Weather History & Observations

Time (CDT) Temp. Heat Index Dew Point Humidity Pressure Visibility Wind Dir Wind Speed Gust Speed Precip Events Conditions
12:53 AM 77.0 °F - 70.0 °F 79% 29.92 in 10.0 mi South 6.9 mph - N/A   Clear
1:53 AM 77.0 °F - 70.0 °F 79% 29.92 in 10.0 mi South 10.4 mph - N/A   Clear
2:53 AM 75.0 °F - 69.1 °F 82% 29.91 in 10.0 mi South 9.2 mph - N/A   Clear
3:53 AM 73.0 °F - 69.1 °F 87% 29.91 in 10.0 mi SSE 5.8 mph - N/A   Clear
4:53 AM 72.0 °F - 68.0 °F 87% 29.92 in 10.0 mi SSW 4.6 mph - N/A   Clear
5:53 AM 70.0 °F - 68.0 °F 93% 29.93 in 10.0 mi SSW 5.8 mph - N/A   Clear
6:53 AM 71.1 °F - 68.0 °F 90% 29.94 in 10.0 mi SSW 4.6 mph - N/A   Clear
7:53 AM 73.9 °F - 69.1 °F 85% 29.96 in 10.0 mi SW 4.6 mph - N/A   Clear
8:53 AM 80.1 °F 83.2 °F 70.0 °F 71% 29.96 in 10.0 mi SW 5.8 mph - N/A   Clear
9:53 AM 84.0 °F 88.4 °F 70.0 °F 63% 29.97 in 10.0 mi SW 5.8 mph - N/A   Clear
10:53 AM 90.0 °F 94.5 °F 69.1 °F 50% 29.98 in 10.0 mi WSW 5.8 mph - N/A   Clear
11:53 AM 93.9 °F 97.5 °F 66.9 °F 41% 29.98 in 10.0 mi Variable 6.9 mph - N/A   Clear
12:53 PM 97.0 °F 99.9 °F 64.9 °F 35% 29.97 in 10.0 mi West 10.4 mph - N/A   Clear
1:53 PM 99.0 °F 100.5 °F 62.1 °F 30% 29.96 in 10.0 mi Variable 5.8 mph 17.3 mph N/A   Partly Cloudy
2:53 PM 100.9 °F 101.6 °F 60.1 °F 26% 29.94 in 10.0 mi Variable 6.9 mph 16.1 mph N/A   Clear
3:53 PM 102.0 °F 101.1 °F 57.0 °F 22% 29.92 in 10.0 mi WNW 10.4 mph 16.1 mph N/A   Mostly Cloudy
4:53 PM 91.9 °F 94.5 °F 66.0 °F 42% 29.92 in 10.0 mi East 10.4 mph - 0.00 in Rain Light Rain
5:53 PM 91.9 °F 93.3 °F 64.0 °F 39% 29.93 in 10.0 mi SE 5.8 mph - N/A   Clear
6:53 PM 98.1 °F 96.8 °F 57.0 °F 25% 29.91 in 10.0 mi SSW 3.5 mph - N/A   Partly Cloudy
7:53 PM 96.1 °F 95.6 °F 59.0 °F 29% 29.92 in 10.0 mi Calm Calm - N/A   Clear
8:53 PM 89.1 °F 90.0 °F 63.0 °F 42% 29.94 in 10.0 mi NE 4.6 mph - N/A   Clear
9:53 PM 84.9 °F 85.4 °F 62.1 °F 46% 29.97 in 10.0 mi ENE 4.6 mph - N/A   Clear
10:53 PM 82.0 °F 82.7 °F 61.0 °F 49% 29.99 in 10.0 mi NE 4.6 mph - N/A   Clear
11:53 PM 78.1 °F - 61.0 °F 56% 30.00 in 10.0 mi Calm Calm - N/A   Clear